TimePDT,TemperatureF,Dew PointF,Humidity,Sea Level PressureIn,VisibilityMPH,Wind Direction,Wind SpeedMPH,Gust SpeedMPH,PrecipitationIn,Events,Conditions,WindDirDegrees,DateUTC
12:53 AM,51.1,48.0,89,30.10,9.0,Calm,Calm,-,N/A,,Partly Cloudy,0,2013-03-29 07:53:00
1:06 AM,51.8,48.2,88,30.10,8.0,Calm,Calm,-,N/A,,Mostly Cloudy,0,2013-03-29 08:06:00
1:38 AM,48.2,46.4,93,30.09,9.0,Calm,Calm,-,N/A,,Scattered Clouds,0,2013-03-29 08:38:00
1:53 AM,48.9,46.0,90,30.09,9.0,Calm,Calm,-,N/A,,Clear,0,2013-03-29 08:53:00
2:53 AM,48.0,46.0,93,30.09,8.0,NW,4.6,-,N/A,,Clear,320,2013-03-29 09:53:00
3:53 AM,46.0,44.1,93,30.08,6.0,Calm,Calm,-,N/A,,Clear,0,2013-03-29 10:53:00
4:35 AM,44.6,42.8,93,30.07,6.0,Calm,Calm,-,N/A,,Scattered Clouds,0,2013-03-29 11:35:00
4:43 AM,46.4,44.6,93,30.07,3.0,Calm,Calm,-,N/A,,Mostly Cloudy,0,2013-03-29 11:43:00
4:51 AM,46.4,44.6,93,30.08,5.0,Calm,Calm,-,N/A,,Mostly Cloudy,0,2013-03-29 11:51:00
4:53 AM,46.0,45.0,96,30.08,5.0,Calm,Calm,-,N/A,,Overcast,0,2013-03-29 11:53:00
5:10 AM,46.4,46.4,100,30.08,2.0,Calm,Calm,-,N/A,,Overcast,0,2013-03-29 12:10:00
5:19 AM,48.2,46.4,93,30.08,1.5,Calm,Calm,-,N/A,,Overcast,0,2013-03-29 12:19:00
5:37 AM,46.4,46.4,100,30.08,0.8,Calm,Calm,-,N/A,,Mist,0,2013-03-29 12:37:00
5:53 AM,46.9,46.0,97,30.08,0.5,Calm,Calm,-,N/A,Fog,Fog,0,2013-03-29 12:53:00
6:13 AM,46.4,46.4,100,30.08,0.2,Calm,Calm,-,N/A,Fog,Fog,0,2013-03-29 13:13:00
6:34 AM,46.4,46.4,100,30.08,0.2,Calm,Calm,-,N/A,Fog,Fog,0,2013-03-29 13:34:00
6:53 AM,46.9,46.9,100,30.08,0.2,Calm,Calm,-,N/A,Fog,Fog,0,2013-03-29 13:53:00
7:13 AM,46.4,46.4,100,30.08,0.2,Calm,Calm,-,N/A,Fog,Fog,0,2013-03-29 14:13:00
7:53 AM,46.9,46.9,100,30.08,0.2,Calm,Calm,-,N/A,Fog,Fog,0,2013-03-29 14:53:00
8:48 AM,50.0,48.2,94,30.08,0.8,Calm,Calm,-,N/A,,Mist,0,2013-03-29 15:48:00
8:53 AM,51.1,50.0,96,30.08,1.2,Calm,Calm,-,N/A,,Mostly Cloudy,0,2013-03-29 15:53:00
8:55 AM,51.8,50.0,94,30.08,2.0,Calm,Calm,-,N/A,,Mostly Cloudy,0,2013-03-29 15:55:00
8:58 AM,51.8,50.0,94,30.08,3.0,Calm,Calm,-,N/A,,Scattered Clouds,0,2013-03-29 15:58:00
9:53 AM,57.9,51.1,78,30.08,8.0,SE,3.5,-,N/A,,Clear,140,2013-03-29 16:53:00
10:53 AM,66.0,52.0,60,30.07,10.0,Variable,3.5,-,N/A,,Clear,0,2013-03-29 17:53:00
11:53 AM,72.0,52.0,49,30.07,10.0,Variable,3.5,-,N/A,,Clear,0,2013-03-29 18:53:00
12:33 PM,64.4,53.6,68,30.08,10.0,SW,13.8,-,N/A,,Clear,220,2013-03-29 19:33:00
12:53 PM,60.1,50.0,69,30.09,10.0,SW,12.7,21.9,N/A,,Clear,230,2013-03-29 19:53:00
1:53 PM,59.0,50.0,72,30.10,9.0,SW,8.1,-,N/A,,Clear,230,2013-03-29 20:53:00
2:53 PM,62.1,48.9,62,30.09,10.0,SW,5.8,-,N/A,,Clear,230,2013-03-29 21:53:00
3:53 PM,64.0,48.9,58,30.06,10.0,SW,6.9,-,N/A,,Clear,230,2013-03-29 22:53:00
4:53 PM,62.1,51.1,67,30.05,10.0,SSW,12.7,-,N/A,,Clear,200,2013-03-29 23:53:00
5:53 PM,55.0,50.0,83,30.06,7.0,WSW,3.5,-,N/A,,Clear,250,2013-03-30 00:53:00
6:53 PM,54.0,48.9,83,30.07,8.0,SSW,4.6,-,N/A,,Clear,210,2013-03-30 01:53:00
7:53 PM,52.0,48.9,89,30.05,9.0,SSW,3.5,-,N/A,,Clear,210,2013-03-30 02:53:00
8:53 PM,52.0,48.9,89,30.08,8.0,SW,5.8,-,N/A,,Partly Cloudy,220,2013-03-30 03:53:00
9:44 PM,51.8,48.2,88,30.08,8.0,WSW,3.5,-,N/A,,Mostly Cloudy,250,2013-03-30 04:44:00
9:53 PM,51.1,48.9,92,30.09,7.0,SW,4.6,-,N/A,,Mostly Cloudy,220,2013-03-30 04:53:00
10:53 PM,52.0,50.0,93,30.09,8.0,North,-9999.0,-,N/A,,Overcast,0,2013-03-30 05:53:00
11:53 PM,52.0,50.0,93,30.09,7.0,SSW,3.5,-,N/A,,Mostly Cloudy,210,2013-03-30 06:53:00